DLH747 EDDH-EKCH

Flight info

Callsign DLH747
Flight time 0h 35m
Altitude 23000
Route LUGEG3G/33 LUGEG P605 GESKA/N0398F220 Z711 MONAK
Aircraft A320/M-SDE3FGHIRWY/LB1

Departure

Time 2026-04-23 18:48
Airport Hamburg Helmut Schmidt Airport (EDDH)

Arrival

Time 2026-04-23 19:24
Airport Copenhagen Kastrup Airport (EKCH)
Time Latitude Longitude Altitude Speed Heading
2026-04-23 18:03 53.63281 10.00377 51 ft 0 kts 85°
2026-04-23 18:37 53.63281 10.00375 51 ft 2 kts 85°
2026-04-23 18:37 53.63280 10.00333 49 ft 4 kts 89°
2026-04-23 18:37 53.63280 10.00287 51 ft 4 kts 94°
2026-04-23 18:38 53.63284 10.00242 51 ft 4 kts 108°
2026-04-23 18:38 53.63295 10.00207 48 ft 4 kts 155°
2026-04-23 18:38 53.63305 10.00202 49 ft 1 kts 176°
2026-04-23 18:38 53.63306 10.00202 49 ft 0 kts 176°
2026-04-23 18:41 53.63286 10.00204 47 ft 6 kts 176°
2026-04-23 18:42 53.63221 10.00212 51 ft 12 kts 175°
2026-04-23 18:42 53.63120 10.00223 51 ft 15 kts 176°
2026-04-23 18:42 53.63035 10.00189 51 ft 12 kts 209°
2026-04-23 18:42 53.62962 10.00112 51 ft 13 kts 212°
2026-04-23 18:43 53.62896 10.00051 51 ft 9 kts 201°
2026-04-23 18:43 53.62857 9.99999 52 ft 6 kts 238°
2026-04-23 18:43 53.62842 9.99955 50 ft 0 kts 240°
2026-04-23 18:45 53.62838 9.99943 52 ft 4 kts 240°
2026-04-23 18:45 53.62813 9.99861 52 ft 12 kts 251°
2026-04-23 18:45 53.62835 9.99771 51 ft 1 kts 324°
2026-04-23 18:46 53.62836 9.99770 52 ft 0 kts 325°
2026-04-23 18:48 53.62974 9.99643 52 ft 60 kts 333°
2026-04-23 18:48 53.63558 9.99142 52 ft 125 kts 333°
2026-04-23 18:48 53.64484 9.98351 138 ft 163 kts 332°
2026-04-23 18:48 53.65489 9.97514 732 ft 162 kts 333°
2026-04-23 18:49 53.66534 9.96655 1079 ft 177 kts 333°
2026-04-23 18:49 53.67718 9.95664 1281 ft 204 kts 332°
2026-04-23 18:49 53.69088 9.94778 1809 ft 217 kts 352°
2026-04-23 18:49 53.70608 9.94687 2575 ft 220 kts 359°
2026-04-23 18:50 53.71623 9.94690 3095 ft 222 kts
2026-04-23 18:50 53.73554 9.95869 4074 ft 228 kts 40°
2026-04-23 18:50 53.74536 9.98099 4450 ft 250 kts 65°
2026-04-23 18:50 53.75316 10.00874 4657 ft 267 kts 65°
2026-04-23 18:51 53.76124 10.03735 5219 ft 272 kts 65°
2026-04-23 18:51 53.76948 10.06620 6125 ft 274 kts 65°
2026-04-23 18:51 53.77786 10.09531 6979 ft 277 kts 65°
2026-04-23 18:51 53.78637 10.12485 7817 ft 281 kts 65°
2026-04-23 18:52 53.79493 10.15465 8639 ft 284 kts 65°
2026-04-23 18:52 53.80361 10.18489 9436 ft 287 kts 65°
2026-04-23 18:52 53.81241 10.21555 10147 ft 295 kts 65°
2026-04-23 18:52 53.82171 10.24805 10410 ft 318 kts 65°
2026-04-23 18:53 53.83166 10.28293 10713 ft 338 kts 65°
2026-04-23 18:53 53.84199 10.31910 11333 ft 344 kts 65°
2026-04-23 18:53 53.85249 10.35580 12036 ft 349 kts 65°
2026-04-23 18:53 53.86299 10.39260 12730 ft 352 kts 65°
2026-04-23 18:54 53.87366 10.43021 13413 ft 356 kts 65°
2026-04-23 18:54 53.88442 10.46822 14073 ft 359 kts 65°
2026-04-23 18:54 53.89527 10.50653 14718 ft 363 kts 65°
2026-04-23 18:54 53.90623 10.54530 15350 ft 366 kts 65°
2026-04-23 18:55 53.91728 10.58440 15966 ft 369 kts 65°
2026-04-23 18:55 53.92823 10.62312 16556 ft 372 kts 65°
2026-04-23 18:55 53.93617 10.64969 16945 ft 375 kts 60°
2026-04-23 18:55 53.95111 10.68618 17518 ft 379 kts 50°
2026-04-23 18:56 53.96900 10.71923 18089 ft 382 kts 47°
2026-04-23 18:56 53.98722 10.75228 18651 ft 385 kts 47°
2026-04-23 18:56 54.00563 10.78569 19205 ft 388 kts 47°
2026-04-23 18:56 54.02414 10.81930 19739 ft 391 kts 47°
2026-04-23 18:57 54.04279 10.85324 20280 ft 394 kts 47°
2026-04-23 18:57 54.06235 10.88621 20791 ft 398 kts 42°
2026-04-23 18:57 54.08324 10.91737 21313 ft 401 kts 41°
2026-04-23 18:57 54.10425 10.94787 21803 ft 404 kts 40°
2026-04-23 18:58 54.12579 10.97874 22282 ft 406 kts 40°
2026-04-23 18:58 54.14782 11.01031 22737 ft 410 kts 40°
2026-04-23 18:58 54.16966 11.04176 22898 ft 411 kts 40°
2026-04-23 18:58 54.19145 11.07337 22944 ft 412 kts 40°
2026-04-23 18:59 54.21293 11.10479 22943 ft 412 kts 41°
2026-04-23 18:59 54.23466 11.13671 22943 ft 412 kts 41°
2026-04-23 18:59 54.25636 11.16863 22943 ft 412 kts 41°
2026-04-23 18:59 54.27811 11.20062 22943 ft 412 kts 41°
2026-04-23 19:00 54.29983 11.23262 22943 ft 412 kts 41°
2026-04-23 19:00 54.32157 11.26466 22943 ft 412 kts 41°
2026-04-23 19:00 54.34329 11.29666 22943 ft 412 kts 41°
2026-04-23 19:00 54.36500 11.32869 22943 ft 412 kts 41°
2026-04-23 19:01 54.38667 11.36079 22943 ft 412 kts 41°
2026-04-23 19:01 54.40829 11.39293 22942 ft 412 kts 41°
2026-04-23 19:01 54.42992 11.42512 22941 ft 411 kts 41°
2026-04-23 19:01 54.45158 11.45734 22940 ft 411 kts 41°
2026-04-23 19:02 54.47325 11.48954 22939 ft 411 kts 41°
2026-04-23 19:02 54.49490 11.52174 22938 ft 411 kts 41°
2026-04-23 19:02 54.51651 11.55393 22937 ft 411 kts 41°
2026-04-23 19:02 54.53788 11.58588 22936 ft 411 kts 41°
2026-04-23 19:03 54.55947 11.61822 22935 ft 411 kts 41°
2026-04-23 19:03 54.58103 11.65052 22934 ft 411 kts 41°
2026-04-23 19:03 54.60258 11.68286 22932 ft 411 kts 41°
2026-04-23 19:03 54.62415 11.71528 22931 ft 411 kts 41°
2026-04-23 19:04 54.64570 11.74772 22934 ft 411 kts 41°
2026-04-23 19:04 54.66701 11.77987 22805 ft 400 kts 41°
2026-04-23 19:04 54.68777 11.81125 22415 ft 394 kts 41°
2026-04-23 19:04 54.70830 11.84232 21959 ft 391 kts 41°
2026-04-23 19:05 54.72871 11.87326 21490 ft 388 kts 41°
2026-04-23 19:05 54.74896 11.90401 21023 ft 385 kts 41°
2026-04-23 19:05 54.76903 11.93450 20552 ft 382 kts 41°
2026-04-23 19:05 54.78895 11.96476 20083 ft 380 kts 41°
2026-04-23 19:06 54.80872 11.99483 19619 ft 377 kts 41°
2026-04-23 19:06 54.82838 12.02482 19150 ft 375 kts 41°
2026-04-23 19:06 54.84783 12.05460 18687 ft 372 kts 41°
2026-04-23 19:06 54.86719 12.08426 18225 ft 369 kts 41°
2026-04-23 19:07 54.88638 12.11369 17767 ft 367 kts 41°
2026-04-23 19:07 54.90519 12.14259 17322 ft 365 kts 41°
2026-04-23 19:07 54.92415 12.17168 16866 ft 362 kts 41°
2026-04-23 19:07 54.94298 12.20058 16429 ft 360 kts 41°
2026-04-23 19:08 54.96167 12.22930 15991 ft 358 kts 41°
2026-04-23 19:08 54.98027 12.25788 15556 ft 355 kts 41°
2026-04-23 19:08 54.99921 12.28528 15118 ft 353 kts 33°
2026-04-23 19:08 55.02131 12.30296 14706 ft 350 kts 14°
2026-04-23 19:09 55.04534 12.30872 14263 ft 348 kts
2026-04-23 19:09 55.06945 12.31209 13808 ft 346 kts
2026-04-23 19:09 55.09344 12.31534 13379 ft 344 kts
2026-04-23 19:09 55.11722 12.31852 12942 ft 342 kts
2026-04-23 19:10 55.14088 12.32170 12500 ft 340 kts
2026-04-23 19:10 55.16441 12.32488 12054 ft 338 kts
2026-04-23 19:10 55.18774 12.32806 11604 ft 335 kts
2026-04-23 19:10 55.21065 12.33123 11161 ft 333 kts
2026-04-23 19:11 55.23372 12.33443 10708 ft 331 kts
2026-04-23 19:11 55.25658 12.33762 10255 ft 329 kts
2026-04-23 19:11 55.27936 12.34081 9853 ft 325 kts
2026-04-23 19:11 55.30151 12.34389 9726 ft 313 kts
2026-04-23 19:12 55.31566 12.34586 9641 ft 305 kts
2026-04-23 19:12 55.34334 12.34971 9427 ft 291 kts
2026-04-23 19:12 55.36341 12.35251 9116 ft 288 kts
2026-04-23 19:12 55.38323 12.35528 8762 ft 286 kts
2026-04-23 19:13 55.40301 12.35806 8383 ft 284 kts
2026-04-23 19:13 55.42271 12.36082 8011 ft 283 kts
2026-04-23 19:13 55.44205 12.36354 7628 ft 281 kts
2026-04-23 19:13 55.46151 12.36627 7243 ft 280 kts
2026-04-23 19:14 55.48088 12.36900 6856 ft 278 kts
2026-04-23 19:14 55.50011 12.37172 6466 ft 277 kts
2026-04-23 19:14 55.51925 12.37442 6074 ft 275 kts
2026-04-23 19:14 55.53830 12.37614 5677 ft 273 kts 354°
2026-04-23 19:15 55.55604 12.36600 5290 ft 269 kts 326°
2026-04-23 19:15 55.56874 12.34259 4877 ft 264 kts 297°
2026-04-23 19:15 55.57345 12.31179 4458 ft 260 kts 271°
2026-04-23 19:15 55.57310 12.27984 4017 ft 260 kts 266°
2026-04-23 19:16 55.57206 12.24807 3604 ft 259 kts 265°
2026-04-23 19:16 55.56824 12.21745 3201 ft 255 kts 242°
2026-04-23 19:16 55.55677 12.19447 2872 ft 249 kts 211°
2026-04-23 19:17 55.52341 12.19292 2841 ft 254 kts 150°
2026-04-23 19:17 55.50962 12.21247 2840 ft 256 kts 137°
2026-04-23 19:17 55.49699 12.23462 2841 ft 257 kts 135°
2026-04-23 19:17 55.48445 12.25710 2842 ft 257 kts 135°
2026-04-23 19:18 55.47195 12.27961 2842 ft 257 kts 135°
2026-04-23 19:18 55.45948 12.30210 2842 ft 257 kts 135°
2026-04-23 19:18 55.44701 12.32459 2842 ft 257 kts 135°
2026-04-23 19:18 55.43452 12.34714 2842 ft 257 kts 134°
2026-04-23 19:19 55.42312 12.40437 2842 ft 260 kts 80°
2026-04-23 19:19 55.43045 12.43311 2841 ft 256 kts 50°
2026-04-23 19:20 55.46001 12.45592 2676 ft 228 kts 10°
2026-04-23 19:20 55.47531 12.46111 2523 ft 219 kts 10°
2026-04-23 19:20 55.48958 12.46598 2485 ft 204 kts 10°
2026-04-23 19:20 55.50294 12.47275 2250 ft 197 kts 25°
2026-04-23 19:21 55.51429 12.48524 2014 ft 187 kts 37°
2026-04-23 19:21 55.53311 12.51266 1569 ft 161 kts 41°
2026-04-23 19:21 55.54128 12.52513 1359 ft 151 kts 41°
2026-04-23 19:22 55.54911 12.53715 1161 ft 148 kts 41°
2026-04-23 19:22 55.55681 12.54898 964 ft 146 kts 41°
2026-04-23 19:22 55.57201 12.57240 584 ft 144 kts 41°
2026-04-23 19:23 55.57955 12.58402 392 ft 143 kts 41°
2026-04-23 19:23 55.58706 12.59558 209 ft 143 kts 41°
2026-04-23 19:23 55.59454 12.60693 57 ft 141 kts 40°
2026-04-23 19:24 55.60325 12.62053 23 ft 20 kts 39°
2026-04-23 19:24 55.60454 12.62228 26 ft 23 kts 32°
2026-04-23 19:24 55.60631 12.62343 25 ft 0 kts 10°
2026-04-23 19:25 55.60722 12.62372 24 ft 17 kts 11°
2026-04-23 19:26 55.60921 12.62594 24 ft 16 kts 41°
2026-04-23 19:26 55.60992 12.62705 26 ft 10 kts 41°
2026-04-23 19:27 55.61076 12.62838 24 ft 8 kts 41°
2026-04-23 19:27 55.61398 12.63337 24 ft 29 kts 41°
2026-04-23 19:28 55.61696 12.63796 24 ft 27 kts 41°
2026-04-23 19:28 55.61912 12.64102 24 ft 19 kts 26°
2026-04-23 19:29 55.62033 12.64204 26 ft 20 kts 25°
2026-04-23 19:29 55.62153 12.64304 23 ft 0 kts 24°
2026-04-23 19:30 55.62163 12.64312 23 ft 6 kts 25°
2026-04-23 19:31 55.62232 12.64368 24 ft 16 kts 22°
2026-04-23 19:31 55.62356 12.64431 23 ft 14 kts 15°
2026-04-23 19:31 55.62460 12.64477 24 ft 14 kts
2026-04-23 19:31 55.62539 12.64367 24 ft 15 kts 304°
2026-04-23 19:32 55.62591 12.64229 24 ft 7 kts 303°
2026-04-23 19:32 55.62596 12.64215 25 ft 0 kts 303°
2026-04-23 19:32 55.62596 12.64213 25 ft 1 kts 303°
2026-04-23 19:33 55.62627 12.64189 24 ft 8 kts
2026-04-23 19:33 55.62662 12.64220 24 ft 5 kts 30°
2026-04-23 19:33 55.62673 12.64231 25 ft 0 kts 32°